Regional Weather Roundup
Issued by NWS Charleston, SC

Current Version | Previous Version | Text Only | Print | Product List | Glossary Off
Versions: 1 2 3 4 5 6 7 8 9 10 11 12 13 14 15 16 17 18 19 20 21 22 23 24 25 26 27 28 29 30 31 32 33 34 35 36 37 38 39 40 41 42 43 44 45 46 47 48 49 50

000
ASUS42 KCHS 152127
RWRCHS

Regional Weather Roundup
National Weather Service Charleston SC
400 PM EST MON JAN 15 2018

NOTE: "fair" indicates few or no clouds below 12,000 feet with no
significant weather and/or obstructions to visibility.

Not all stations are quality controlled. Use data with caution,
especially dewpoint observations.

SCZ027-030-031-034>040-042>050-152200-
...Southeast South Carolina...

CITY           SKY/WX    TMP DP  RH WIND       PRES   REMARKS
N Charleston   FAIR      48  17  29 N10       30.41F
Waterfront Prk NOT AVBL
Mount Pleasant FAIR      46  19  34 NW8       30.41F
Johns Island   FAIR      46  18  31 N8        30.41S
Pinopolis        N/A     41  21  45 NW8       30.36S
Moncks Corner  FAIR      43  16  33 N6        30.42F HAZE
Summerville    FAIR      45  18  33 N5        30.43S
Beaufort MCAS  FAIR      50  19  29 NE8       30.41F
Beaufort Arpt  FAIR      46  19  34 N9        30.41R
Hilton Head Is SUNNY     48  21  34 NW9       30.42F
Walterboro     FAIR      45  19  36 N7        30.43S
Allendale      FAIR      46  16  29 CALM      30.42R

...Southern Midlands and Pee Dee...

CITY           SKY/WX    TMP DP  RH WIND       PRES   REMARKS
Georgetown     FAIR      45  14  29 N8        30.42F
Kingstree      FAIR      41  12  30 NW7       30.43F
Orangeburg     FAIR      45  14  28 N5        30.42S
Barnwell         N/A     48  19  32 N6        30.42S
Aiken          FAIR      43  18  36 NW6       30.44F
Manning        FAIR      43  14  31 MISG      30.44R
Columbia       FAIR      45  15  30 N3        30.43S
Sumter         FAIR      44  12  27 CALM      30.41F
Florence       FAIR      43   9  24 N8        30.44S
Myrtle Beach   FAIR      45  16  31 NW7       30.43R
N Myrtle Beach FAIR      45  20  36 N8        30.41R

$$

GAZ063-065-086>088-099>101-113>116-118-119-134>141-150-152200-
...Southeast Georgia...

CITY           SKY/WX    TMP DP  RH WIND       PRES   REMARKS
Savannah Arpt  FAIR      51  20  29 N6        30.42R
Hunter AAF     FAIR      51  20  29 NE7       30.38S
Fort Stewart   FAIR      51  22  31 N7        30.40R
Statesboro     FAIR      49  15  25 NE5       30.42S
Sylvania       FAIR      48  24  39 NE6       30.43S
Claxton        FAIR      51  22  32 N5        30.42S

...CSRA, Central and far Southeast Georgia...

CITY           SKY/WX    TMP DP  RH WIND       PRES   REMARKS
Thomson        FAIR      45  19  34 NE6       30.47S
Augusta-Bush   FAIR      48  16  27 N6        30.42F
Augusta-Daniel FAIR      47  17  30 NW7       30.42F
Swainsboro     FAIR      50  25  37 N6        30.42S
Vidalia        FAIR      52  27  37 CALM      30.41S
Eastman        FAIR      53   3  13 CALM      30.44S
Hazlehurst     FAIR      53  10  18 NE5       30.39F
Alma           FAIR      54  25  32 VRB3      30.40R
Waycross       FAIR      54  18  24 NE7       30.39F
Jesup          FAIR      54  19  26 N6        30.41R
Baxley         FAIR      50  25  37 NE5       30.40S
Brunswick      FAIR      46  30  53 E8        30.42S
Saint Simons   FAIR      46  30  53 E12       30.41R

$$

SCZ027-028-034-036>038-045-046-048>050-GAZ119-141-152200-
...Lake and Supplemental Coastal Observations...

STATION/POSITION TIME  TEMP    WIND        PRES    WAVE   SWELL
                       AIR SEA DIR/SP/G            HT/PER HT/PER/DIR
                 (UTC) (F)     (DEG/KT/KT) (MB)    (FT/S) (FT/S/D)
Winyah Bay       2045   44     320/  7     1030.0S
Lake Murray      2050   43     190/  4/  6 1029.8F
ACE Basin NERRS  2045   47     340/  3     1030.0S
Fort Pulaski     2100   47 47   50/  6/  8 1029.9
Sapelo Island    2100   46      90/  8     1030.0

$$

ANZ835-935-AMZ111-154-330-350-352-354-370-450-454-472-152200-
...C-MAN and Buoy Observations...

STATION/POSITION TIME  TEMP    WIND        PRES    WAVE   SWELL
                       AIR SEA DIR/SP/G            HT/PER HT/PER/DIR
                 (UTC) (F)     (DEG/KT/KT) (MB)    (FT/S) (FT/S/D)
Buoy 41004       2110   47 69  360/ 16/ 19 1029.4
Buoy 41008       2050   43 50   30/ 10/ 12 1029.9R   5/10   3/100/10
Folly Beach CMAN 2100   45     340/ 10/ 12 1030.4F
Capers Nearshore 2108   44      20/  8/ 10 1029.4F
Fripp Nearshore  2108   47 45  360/  8/ 12 1029.4S


STATION/POSITION TIME  TEMP    WIND        PRES    WAVE   SWELL
                       AIR SEA DIR/SP/G            HT/PER HT/PER/DIR
                 (UTC) (F)     (DEG/KT/KT) (MB)    (FT/S) (FT/S/D)
5E St. Marys GA  2100      50                N/A     5/11   2/ 80/11
Frying Pan Buoy  2110   45 58  350/ 12/ 14 1029.1
Buoy 41025       2110   43 64  340/ 23/ 27 1028.0
Cape Lookout NC  2100          360/ 12/ 15 1028.3F
Buoy 41002       2050   64 70  350/ 21/ 27 1023.4R  11/ 8   5/ 50/10
Buoy 41010       NOT AVBL
St Augustine FL  2100   47 52  360/ 18/ 20 1029.1S


$$




USA.gov is the U.S. government's official web portal to all federal, state and local government web resources and services.